Hyannis, MA

11:49 AM EDT on August 20, 2017 (GMT -0400)
Barnstable Municipal-Boardman-Polando Field

Weather History for KHYA - November, 2012

Change the Weather History Date:

Saturday, November 3, 2012

  Actual Average Record
Temperature  
Mean Temperature 46 °F -  
Max Temperature 54 °F 58 °F 69 °F (2003)
Min Temperature 39 °F 41 °F 22 °F (1964)
Degree Days  
Heating Degree Days 19    
Moisture  
Dew Point 35 °F    
Average Humidity 67    
Maximum Humidity 79    
Minimum Humidity 55    
Precipitation  
Precipitation 0.00 in - - ()
Sea Level Pressure  
Sea Level Pressure 29.68 in    
Wind  
Wind Speed 8 mph (NW)    
Max Wind Speed 14 mph    
Max Gust Speed 20 mph    
Visibility 10 miles    
Events      
Averages and records for this station are not official NWS values.
T = Trace of Precipitation, MM = Missing Value Source: NWS Daily Summary

Daily Weather History Graph

Daily Weather History Graph

Search for Another Location

Airport or City:

Trip Planner

Search our weather history database for the weather conditions in past years. The results will help you decide how hot, cold, wet, or windy it might be!

Date:

Astronomy

Nov. 03, 2012 Rise Set
Actual Time 7:16 AM EDT 5:32 PM EDT
Civil Twilight 6:47 AM EDT 6:01 PM EDT
Nautical Twilight 6:14 AM EDT 6:34 PM EDT
Astronomical Twilight 5:41 AM EDT 7:06 PM EDT
Moon 9:09 PM EDT (11/3) 11:19 AM EDT (11/3)
Length of Visible Light 11h 14m
Length of Day
10h 16m
Waning Gibbous, 80% of the Moon is Illuminated
Nov 3
Waning Gibbous
Nov 6
Last Quarter
Nov 13
New
Nov 20
First Quarter
Nov 28
Full

Hourly Weather History & Observations

Time (EDT) Temp. Windchill Dew Point Humidity Pressure Visibility Wind Dir Wind Speed Gust Speed Precip Events Conditions
12:56 AM 42.1 °F 39.2 °F 36.0 °F 79% 29.60 in 10.0 mi WNW 4.6 mph - N/A   Clear
1:56 AM 42.1 °F 38.4 °F 35.1 °F 76% 29.60 in 10.0 mi West 5.8 mph - N/A   Clear
2:56 AM 41.0 °F 36.4 °F 34.0 °F 76% 29.60 in 10.0 mi West 6.9 mph - N/A   Clear
3:56 AM 39.9 °F 33.9 °F 34.0 °F 79% 29.60 in 10.0 mi West 9.2 mph - N/A   Clear
4:56 AM 39.9 °F 35.8 °F 34.0 °F 79% 29.61 in 10.0 mi West 5.8 mph - N/A   Clear
5:56 AM 39.9 °F 34.5 °F 34.0 °F 79% 29.62 in 10.0 mi WNW 8.1 mph - N/A   Clear
6:56 AM 42.1 °F 36.6 °F 34.0 °F 73% 29.64 in 10.0 mi WNW 9.2 mph - N/A   Overcast
7:56 AM 42.1 °F 37.7 °F 34.0 °F 73% 29.65 in 10.0 mi WNW 6.9 mph - N/A   Scattered Clouds
8:56 AM 46.0 °F 41.4 °F 36.0 °F 68% 29.68 in 10.0 mi NW 9.2 mph - N/A   Clear
9:56 AM 46.9 °F - 37.0 °F 68% 29.68 in 10.0 mi NW 12.7 mph 18.4 mph N/A   Mostly Cloudy
10:46 AM 48.2 °F - 37.4 °F 66% 29.69 in 10.0 mi Variable 6.9 mph - N/A   Overcast
10:56 AM 48.0 °F - 37.9 °F 68% 29.69 in 10.0 mi NW 12.7 mph 19.6 mph N/A   Overcast
11:44 AM 48.2 °F - 37.4 °F 66% 29.68 in 10.0 mi NNW 12.7 mph - N/A   Overcast
11:56 AM 50.0 °F - 37.9 °F 63% 29.68 in 10.0 mi NNW 13.8 mph - N/A   Overcast
12:56 PM 52.0 °F - 37.9 °F 59% 29.68 in 10.0 mi NNW 13.8 mph - N/A   Overcast
1:56 PM 51.1 °F - 37.0 °F 59% 29.68 in 10.0 mi North 12.7 mph - N/A   Mostly Cloudy
2:56 PM 53.1 °F - 37.0 °F 55% 29.67 in 10.0 mi NNW 6.9 mph - N/A   Partly Cloudy
3:56 PM 51.1 °F - 37.9 °F 61% 29.69 in 10.0 mi North 5.8 mph - N/A   Mostly Cloudy
4:56 PM 51.1 °F - 39.0 °F 63% 29.70 in 10.0 mi NW 3.5 mph - N/A   Overcast
5:56 PM 48.9 °F - 37.0 °F 64% 29.71 in 10.0 mi Calm Calm - N/A   Mostly Cloudy
6:56 PM 48.9 °F - 35.1 °F 59% 29.73 in 10.0 mi NW 6.9 mph - N/A   Mostly Cloudy
7:56 PM 46.9 °F - 34.0 °F 61% 29.75 in 10.0 mi NW 11.5 mph 19.6 mph N/A   Partly Cloudy
8:56 PM 45.0 °F 40.6 °F 33.1 °F 63% 29.75 in 10.0 mi NW 8.1 mph - N/A   Clear
9:56 PM 45.0 °F 40.6 °F 33.1 °F 63% 29.77 in 10.0 mi WNW 8.1 mph - N/A   Clear
10:56 PM 43.0 °F 39.5 °F 30.9 °F 62% 29.78 in 10.0 mi WNW 5.8 mph - N/A   Clear
11:56 PM 42.1 °F 38.4 °F 30.9 °F 65% 29.77 in 10.0 mi WNW 5.8 mph - N/A   Clear